Location: Albany
(35.0170°S, 117.8920°E)
Time: 02:05:27
(UTC+08:00)

Explorer 7 - Pass Details

Date: 24 January 2021
Orbit: 484 x 677 km, 50.3° (Epoch: 01 March)

Event Time Altitude Azimuth Distance (km) Brightness Sun altitude
Rises 23:11:39 0° 232° (SW) 2,842 11.2 -33.5°
Reaches altitude 10° 23:14:01 10° 233° (SW) 1,901 10.1 -33.7°
Enters shadow 23:14:52 15° 235° (SW) 1,571 9.6 -33.7°
Maximum altitude 23:18:20 72° 317° (NW) 584 - -33.9°
Drops below altitude 10° 23:22:20 10° 41° (NE) 1,767 - -34.2°
Sets 23:24:28 0° 43° (NE) 2,622 - -34.3°
